AAL2517 KCLT-KBWI

Flight info

Callsign AAL2517
Flight time 0h 54m
Altitude 39000
Route KILNS5 AUDII THHMP RAVNN8
Aircraft B738/M-SDE2E3FGHIRWXY/LB1

Departure

Time 2026-05-05 22:06
Airport Charlotte Douglas International Airport (KCLT)

Arrival

Time 2026-05-05 23:00
Airport Baltimore/Washington International Thurgood Marshall Airport (KBWI)
Time Latitude Longitude Altitude Speed Heading
2026-05-05 20:04 35.21828 -80.94292 731 ft 0 kts 96°
2026-05-05 21:57 35.21829 -80.94311 731 ft 4 kts 70°
2026-05-05 21:58 35.21814 -80.94326 730 ft 4 kts 11°
2026-05-05 21:58 35.21795 -80.94336 731 ft 3 kts 52°
2026-05-05 21:58 35.21784 -80.94361 731 ft 4 kts 96°
2026-05-05 21:58 35.21795 -80.94382 731 ft 4 kts 166°
2026-05-05 21:59 35.21821 -80.94386 731 ft 3 kts 176°
2026-05-05 21:59 35.21825 -80.94386 731 ft 1 kts 176°
2026-05-05 22:01 35.21822 -80.94386 730 ft 2 kts 176°
2026-05-05 22:01 35.21787 -80.94383 731 ft 9 kts 175°
2026-05-05 22:01 35.21707 -80.94375 731 ft 14 kts 175°
2026-05-05 22:01 35.21638 -80.94316 731 ft 13 kts 103°
2026-05-05 22:02 35.21630 -80.94207 731 ft 13 kts 81°
2026-05-05 22:02 35.21678 -80.94119 730 ft 13 kts 49°
2026-05-05 22:02 35.21735 -80.94040 730 ft 12 kts 48°
2026-05-05 22:02 35.21791 -80.93964 730 ft 12 kts 49°
2026-05-05 22:03 35.21845 -80.93890 731 ft 12 kts 49°
2026-05-05 22:03 35.21898 -80.93816 731 ft 11 kts 48°
2026-05-05 22:03 35.21952 -80.93742 730 ft 13 kts 48°
2026-05-05 22:03 35.22044 -80.93716 732 ft 15 kts 356°
2026-05-05 22:04 35.22144 -80.93725 732 ft 14 kts 356°
2026-05-05 22:04 35.22241 -80.93732 732 ft 14 kts 357°
2026-05-05 22:04 35.22331 -80.93740 732 ft 13 kts 355°
2026-05-05 22:04 35.22431 -80.93749 732 ft 16 kts 356°
2026-05-05 22:05 35.22506 -80.93672 734 ft 17 kts 95°
2026-05-05 22:05 35.22412 -80.93614 735 ft 17 kts 176°
2026-05-05 22:05 35.22223 -80.93597 735 ft 53 kts 176°
2026-05-05 22:05 35.21621 -80.93545 734 ft 118 kts 176°
2026-05-05 22:06 35.20631 -80.93453 790 ft 161 kts 177°
2026-05-05 22:06 35.19488 -80.93344 1359 ft 167 kts 177°
2026-05-05 22:06 35.18334 -80.93289 2095 ft 168 kts 182°
2026-05-05 22:06 35.17071 -80.93186 2430 ft 199 kts 164°
2026-05-05 22:07 35.15920 -80.92089 2678 ft 230 kts 123°
2026-05-05 22:07 35.15568 -80.90086 2958 ft 265 kts 85°
2026-05-05 22:07 35.16228 -80.87921 3621 ft 278 kts 65°
2026-05-05 22:07 35.17188 -80.85825 4376 ft 284 kts 63°
2026-05-05 22:08 35.18166 -80.83717 5150 ft 287 kts 64°
2026-05-05 22:08 35.19144 -80.81570 5927 ft 291 kts 64°
2026-05-05 22:08 35.20113 -80.79386 6690 ft 294 kts 64°
2026-05-05 22:08 35.21081 -80.77161 7479 ft 297 kts 65°
2026-05-05 22:09 35.22048 -80.74905 8291 ft 301 kts 65°
2026-05-05 22:09 35.23018 -80.72622 9089 ft 305 kts 65°
2026-05-05 22:09 35.23987 -80.70303 9880 ft 309 kts 65°
2026-05-05 22:09 35.24989 -80.67927 10461 ft 323 kts 65°
2026-05-05 22:10 35.26043 -80.65409 10622 ft 348 kts 64°
2026-05-05 22:10 35.27206 -80.62700 10859 ft 368 kts 64°
2026-05-05 22:10 35.28414 -80.59875 11436 ft 377 kts 63°
2026-05-05 22:10 35.29629 -80.57025 12201 ft 380 kts 64°
2026-05-05 22:11 35.30833 -80.54112 12907 ft 386 kts 64°
2026-05-05 22:11 35.32033 -80.51150 13642 ft 390 kts 64°
2026-05-05 22:11 35.32827 -80.49168 14142 ft 392 kts 65°
2026-05-05 22:11 35.34237 -80.45012 15115 ft 399 kts 70°
2026-05-05 22:12 35.34870 -80.42896 15604 ft 401 kts 71°
2026-05-05 22:12 35.35814 -80.39651 16336 ft 406 kts 71°
2026-05-05 22:12 35.36772 -80.36370 17014 ft 410 kts 70°
2026-05-05 22:12 35.37751 -80.33069 17708 ft 414 kts 70°
2026-05-05 22:13 35.38754 -80.29731 18379 ft 418 kts 69°
2026-05-05 22:13 35.39771 -80.26370 19013 ft 423 kts 69°
2026-05-05 22:13 35.40802 -80.22979 19624 ft 427 kts 69°
2026-05-05 22:13 35.41844 -80.19542 20214 ft 431 kts 69°
2026-05-05 22:14 35.42887 -80.16079 20785 ft 435 kts 69°
2026-05-05 22:14 35.43934 -80.12628 21348 ft 439 kts 69°
2026-05-05 22:14 35.45007 -80.09108 21912 ft 442 kts 69°
2026-05-05 22:14 35.46090 -80.05567 22435 ft 446 kts 69°
2026-05-05 22:15 35.47186 -80.01984 22931 ft 450 kts 69°
2026-05-05 22:15 35.48289 -79.98375 23427 ft 453 kts 69°
2026-05-05 22:15 35.49399 -79.94740 23968 ft 455 kts 69°
2026-05-05 22:15 35.50512 -79.91091 24451 ft 458 kts 69°
2026-05-05 22:16 35.51633 -79.87412 24876 ft 462 kts 69°
2026-05-05 22:16 35.52760 -79.83697 25311 ft 465 kts 69°
2026-05-05 22:16 35.53899 -79.79959 25738 ft 469 kts 68°
2026-05-05 22:16 35.55061 -79.76204 26186 ft 472 kts 67°
2026-05-05 22:17 35.56229 -79.72473 26564 ft 475 kts 67°
2026-05-05 22:17 35.57419 -79.68684 26946 ft 477 kts 66°
2026-05-05 22:17 35.58618 -79.64862 27327 ft 480 kts 66°
2026-05-05 22:17 35.59820 -79.61021 27690 ft 483 kts 66°
2026-05-05 22:18 35.61027 -79.57151 28026 ft 486 kts 66°
2026-05-05 22:18 35.62241 -79.53248 28379 ft 489 kts 65°
2026-05-05 22:18 35.63456 -79.49339 28759 ft 490 kts 65°
2026-05-05 22:18 35.64674 -79.45411 29100 ft 492 kts 65°
2026-05-05 22:19 35.65897 -79.41464 29405 ft 495 kts 65°
2026-05-05 22:19 35.67124 -79.37502 29713 ft 497 kts 65°
2026-05-05 22:19 35.68357 -79.33518 30027 ft 499 kts 64°
2026-05-05 22:19 35.69851 -79.29683 30331 ft 493 kts 53°
2026-05-05 22:20 35.71825 -79.26269 30643 ft 486 kts 44°
2026-05-05 22:20 35.74146 -79.23295 31003 ft 478 kts 34°
2026-05-05 22:20 35.76742 -79.20811 31458 ft 469 kts 30°
2026-05-05 22:20 35.79369 -79.18447 31929 ft 465 kts 29°
2026-05-05 22:21 35.81952 -79.16139 32344 ft 464 kts 28°
2026-05-05 22:21 35.84559 -79.13799 32720 ft 462 kts 28°
2026-05-05 22:21 35.87147 -79.11456 33141 ft 460 kts 28°
2026-05-05 22:21 35.89715 -79.09116 33570 ft 457 kts 28°
2026-05-05 22:22 35.92265 -79.06777 33938 ft 456 kts 28°
2026-05-05 22:22 35.94806 -79.04441 34292 ft 455 kts 28°
2026-05-05 22:22 35.97336 -79.02110 34665 ft 453 kts 28°
2026-05-05 22:22 35.99857 -78.99787 34977 ft 452 kts 28°
2026-05-05 22:23 36.02383 -78.97460 35236 ft 453 kts 28°
2026-05-05 22:23 36.04915 -78.95128 35407 ft 455 kts 28°
2026-05-05 22:23 36.07424 -78.92814 35634 ft 456 kts 28°
2026-05-05 22:23 36.09953 -78.90475 35958 ft 454 kts 28°
2026-05-05 22:24 36.12484 -78.88135 36279 ft 452 kts 28°
2026-05-05 22:24 36.15006 -78.85805 36516 ft 453 kts 29°
2026-05-05 22:24 36.17535 -78.83465 36719 ft 454 kts 29°
2026-05-05 22:24 36.20060 -78.81117 37052 ft 452 kts 30°
2026-05-05 22:25 36.22478 -78.78640 37506 ft 450 kts 33°
2026-05-05 22:25 36.24794 -78.76048 37922 ft 447 kts 35°
2026-05-05 22:25 36.27065 -78.73420 38163 ft 448 kts 36°
2026-05-05 22:26 36.31635 -78.68115 38425 ft 451 kts 36°
2026-05-05 22:26 36.33925 -78.65475 38698 ft 448 kts 36°
2026-05-05 22:26 36.36215 -78.62851 38917 ft 447 kts 36°
2026-05-05 22:27 36.40826 -78.57601 39003 ft 452 kts 36°
2026-05-05 22:27 36.45413 -78.52372 38999 ft 448 kts 36°
2026-05-05 22:28 36.49995 -78.47149 39004 ft 445 kts 36°
2026-05-05 22:28 36.54544 -78.41966 39009 ft 442 kts 36°
2026-05-05 22:29 36.59108 -78.36753 38643 ft 450 kts 36°
2026-05-05 22:29 36.61417 -78.34111 38417 ft 450 kts 36°
2026-05-05 22:29 36.63707 -78.31480 38156 ft 447 kts 36°
2026-05-05 22:29 36.65989 -78.28853 37909 ft 446 kts 36°
2026-05-05 22:30 36.68269 -78.26232 37662 ft 446 kts 36°
2026-05-05 22:30 36.70556 -78.23603 37416 ft 446 kts 36°
2026-05-05 22:30 36.72834 -78.20984 37164 ft 446 kts 35°
2026-05-05 22:30 36.75081 -78.18398 36925 ft 446 kts 35°
2026-05-05 22:31 36.77363 -78.15769 36684 ft 446 kts 35°
2026-05-05 22:31 36.79644 -78.13139 36429 ft 446 kts 35°
2026-05-05 22:31 36.81932 -78.10499 36178 ft 447 kts 35°
2026-05-05 22:31 36.84221 -78.07856 35936 ft 450 kts 35°
2026-05-05 22:32 36.86523 -78.05194 35691 ft 453 kts 35°
2026-05-05 22:32 36.88854 -78.02500 35449 ft 459 kts 35°
2026-05-05 22:32 36.91213 -77.99772 35209 ft 465 kts 35°
2026-05-05 22:32 36.93587 -77.97021 34959 ft 463 kts 35°
2026-05-05 22:33 36.95915 -77.94318 34713 ft 461 kts 35°
2026-05-05 22:33 36.98262 -77.91590 34465 ft 460 kts 35°
2026-05-05 22:33 37.00605 -77.88862 34218 ft 459 kts 35°
2026-05-05 22:33 37.02938 -77.86141 33962 ft 457 kts 35°
2026-05-05 22:34 37.05265 -77.83430 33711 ft 457 kts 35°
2026-05-05 22:34 37.07588 -77.80723 33465 ft 456 kts 35°
2026-05-05 22:34 37.09913 -77.78013 33216 ft 457 kts 35°
2026-05-05 22:34 37.12242 -77.75298 32969 ft 458 kts 36°
2026-05-05 22:35 37.14585 -77.72561 32716 ft 460 kts 36°
2026-05-05 22:35 37.16932 -77.69819 32480 ft 462 kts 36°
2026-05-05 22:35 37.19287 -77.67063 32230 ft 464 kts 37°
2026-05-05 22:35 37.21651 -77.64294 31981 ft 465 kts 37°
2026-05-05 22:36 37.24021 -77.61515 31737 ft 467 kts 37°
2026-05-05 22:36 37.26399 -77.58725 31490 ft 468 kts 37°
2026-05-05 22:36 37.28782 -77.55930 31242 ft 469 kts 38°
2026-05-05 22:36 37.31156 -77.53137 30820 ft 465 kts 38°
2026-05-05 22:37 37.33500 -77.50371 30307 ft 459 kts 38°
2026-05-05 22:37 37.35816 -77.47638 29735 ft 454 kts 39°
2026-05-05 22:37 37.38105 -77.44942 29173 ft 449 kts 39°
2026-05-05 22:37 37.40342 -77.42306 28620 ft 445 kts 39°
2026-05-05 22:38 37.42590 -77.39659 28059 ft 441 kts 39°
2026-05-05 22:38 37.44825 -77.37022 27498 ft 437 kts 40°
2026-05-05 22:38 37.47033 -77.34409 27092 ft 430 kts 39°
2026-05-05 22:38 37.49388 -77.32228 26890 ft 411 kts 23°
2026-05-05 22:39 37.52045 -77.31066 26390 ft 401 kts
2026-05-05 22:39 37.54774 -77.30410 25923 ft 397 kts
2026-05-05 22:39 37.57491 -77.29813 25422 ft 395 kts
2026-05-05 22:39 37.60192 -77.29216 24929 ft 393 kts
2026-05-05 22:40 37.62855 -77.28608 24445 ft 391 kts
2026-05-05 22:40 37.65523 -77.27982 23954 ft 390 kts
2026-05-05 22:40 37.68189 -77.27344 23469 ft 389 kts
2026-05-05 22:40 37.70851 -77.26702 23064 ft 389 kts
2026-05-05 22:41 37.73523 -77.26036 23015 ft 396 kts
2026-05-05 22:41 37.76255 -77.25327 22977 ft 403 kts
2026-05-05 22:41 37.79015 -77.24603 22965 ft 406 kts
2026-05-05 22:41 37.81778 -77.23879 22951 ft 405 kts
2026-05-05 22:42 37.84533 -77.23162 22954 ft 404 kts
2026-05-05 22:42 37.87301 -77.22443 22952 ft 405 kts
2026-05-05 22:42 37.90030 -77.21734 22954 ft 406 kts
2026-05-05 22:42 37.92807 -77.21013 22620 ft 408 kts
2026-05-05 22:43 37.95576 -77.20291 22281 ft 403 kts
2026-05-05 22:43 37.98303 -77.19581 21934 ft 397 kts
2026-05-05 22:43 38.00999 -77.18880 21616 ft 394 kts
2026-05-05 22:43 38.03682 -77.18182 21272 ft 393 kts
2026-05-05 22:44 38.06369 -77.17480 20933 ft 393 kts
2026-05-05 22:44 38.09060 -77.16778 20430 ft 395 kts
2026-05-05 22:44 38.11749 -77.16073 19937 ft 393 kts
2026-05-05 22:44 38.14423 -77.15374 19447 ft 390 kts
2026-05-05 22:45 38.17037 -77.14690 18960 ft 386 kts
2026-05-05 22:45 38.19660 -77.14003 18486 ft 382 kts
2026-05-05 22:45 38.22255 -77.13322 17997 ft 379 kts
2026-05-05 22:45 38.24829 -77.12648 17563 ft 375 kts
2026-05-05 22:46 38.27368 -77.11981 17134 ft 370 kts
2026-05-05 22:46 38.29876 -77.11323 16709 ft 367 kts
2026-05-05 22:46 38.32378 -77.10666 16289 ft 365 kts
2026-05-05 22:46 38.34856 -77.10012 15870 ft 363 kts
2026-05-05 22:47 38.37275 -77.09037 15430 ft 370 kts 25°
2026-05-05 22:47 38.39418 -77.07215 15049 ft 370 kts 32°
2026-05-05 22:47 38.41509 -77.05294 14603 ft 370 kts 33°
2026-05-05 22:47 38.43599 -77.03376 14177 ft 370 kts 33°
2026-05-05 22:48 38.45600 -77.01267 13539 ft 378 kts 43°
2026-05-05 22:48 38.47421 -76.98858 13133 ft 375 kts 44°
2026-05-05 22:48 38.49211 -76.96448 12688 ft 372 kts 45°
2026-05-05 22:48 38.50984 -76.94054 12290 ft 369 kts 45°
2026-05-05 22:49 38.52749 -76.91673 11878 ft 369 kts 45°
2026-05-05 22:49 38.54517 -76.89293 11462 ft 369 kts 45°
2026-05-05 22:49 38.56275 -76.86925 11057 ft 366 kts 45°
2026-05-05 22:49 38.58017 -76.84576 10641 ft 362 kts 45°
2026-05-05 22:50 38.59704 -76.82305 10246 ft 352 kts 46°
2026-05-05 22:50 38.61375 -76.80052 9923 ft 341 kts 46°
2026-05-05 22:50 38.62955 -76.77921 9919 ft 321 kts 46°
2026-05-05 22:50 38.64484 -76.75857 9284 ft 328 kts 46°
2026-05-05 22:51 38.66058 -76.73734 8812 ft 322 kts 46°
2026-05-05 22:51 38.67583 -76.71675 8420 ft 316 kts 47°
2026-05-05 22:51 38.69098 -76.69627 8070 ft 317 kts 47°
2026-05-05 22:51 38.70618 -76.67571 7710 ft 317 kts 47°
2026-05-05 22:52 38.72130 -76.65524 7344 ft 316 kts 47°
2026-05-05 22:52 38.73633 -76.63489 7090 ft 313 kts 47°
2026-05-05 22:52 38.75132 -76.61456 6708 ft 314 kts 47°
2026-05-05 22:52 38.76642 -76.59404 6292 ft 316 kts 46°
2026-05-05 22:53 38.78361 -76.57753 6030 ft 309 kts 20°
2026-05-05 22:53 38.80351 -76.56958 6019 ft 293 kts
2026-05-05 22:53 38.82305 -76.56443 6001 ft 280 kts
2026-05-05 22:53 38.84173 -76.55978 5997 ft 267 kts
2026-05-05 22:54 38.85958 -76.55866 6016 ft 251 kts 349°
2026-05-05 22:54 38.87691 -76.56030 6017 ft 248 kts 350°
2026-05-05 22:54 38.89428 -76.56175 6030 ft 252 kts 351°
2026-05-05 22:54 38.91198 -76.56309 6058 ft 256 kts 351°
2026-05-05 22:55 38.92969 -76.56435 6021 ft 254 kts 351°
2026-05-05 22:55 38.94719 -76.56584 5882 ft 250 kts 349°
2026-05-05 22:55 38.96448 -76.56769 5479 ft 250 kts 349°
2026-05-05 22:55 38.98186 -76.56962 5039 ft 250 kts 349°
2026-05-05 22:56 38.99908 -76.57173 4630 ft 248 kts 349°
2026-05-05 22:56 39.01625 -76.57390 4170 ft 248 kts 349°
2026-05-05 22:56 39.03346 -76.57624 3692 ft 249 kts 349°
2026-05-05 22:56 39.05056 -76.57857 3353 ft 243 kts 349°
2026-05-05 22:57 39.06694 -76.58087 3007 ft 238 kts 349°
2026-05-05 22:57 39.07781 -76.58346 2725 ft 233 kts 337°
2026-05-05 22:57 39.09535 -76.59773 2091 ft 219 kts 318°
2026-05-05 22:57 39.10727 -76.60932 1715 ft 208 kts 321°
2026-05-05 22:58 39.11857 -76.61968 1457 ft 191 kts 321°
2026-05-05 22:58 39.12568 -76.62626 1264 ft 180 kts 323°
2026-05-05 22:58 39.13531 -76.63537 928 ft 169 kts 320°
2026-05-05 22:58 39.14442 -76.64394 668 ft 156 kts 322°
2026-05-05 22:59 39.15304 -76.65194 464 ft 151 kts 320°
2026-05-05 22:59 39.16176 -76.66008 260 ft 153 kts 322°
2026-05-05 22:59 39.17008 -76.66789 150 ft 135 kts 324°
2026-05-05 22:59 39.17601 -76.67333 145 ft 71 kts 325°
2026-05-05 23:00 39.17845 -76.67408 147 ft 13 kts 98°
2026-05-05 23:00 39.17785 -76.67329 149 ft 11 kts 146°
2026-05-05 23:00 39.17724 -76.67273 149 ft 11 kts 143°
2026-05-05 23:01 39.17666 -76.67217 150 ft 11 kts 144°
2026-05-05 23:01 39.17605 -76.67162 151 ft 10 kts 144°
2026-05-05 23:01 39.17549 -76.67109 151 ft 10 kts 143°
2026-05-05 23:01 39.17501 -76.67042 152 ft 11 kts 125°
2026-05-05 23:02 39.17470 -76.66934 153 ft 15 kts 96°
2026-05-05 23:02 39.17513 -76.66825 155 ft 14 kts 43°
2026-05-05 23:02 39.17599 -76.66779 155 ft 14 kts
2026-05-05 23:02 39.17667 -76.66759 155 ft 6 kts 41°
2026-05-05 23:03 39.17674 -76.66748 155 ft 1 kts 54°
2026-05-05 23:03 39.17683 -76.66732 155 ft 2 kts 54°
2026-05-05 23:03 39.17685 -76.66729 155 ft 0 kts 54°
2026-05-05 23:04 39.17688 -76.66724 155 ft 0 kts 53°
2026-05-05 23:04 39.17692 -76.66717 155 ft 4 kts 53°
2026-05-05 23:04 39.17696 -76.66710 155 ft 0 kts 53°